[[{"header":{"parameterUnit":"m.s-1","parameterCategory":1,"la1":30.2991,"la2":30.254,"lo1":-89.0895,"lo2":-89.0444,"dy":0.0017,"dx":0.0017,"nx":28,"ny":28,"refTime":"2025-12-14T03:00:00:Z","depth":0,"parameterNumber":2,"parameterNumberName":"U-component_of_WINDS"},"data":[0,0,0,0,0,0,0,0,0,0,0,0,0,0,0,0,0,0,0,0,0,0,0,0,0,0,0,0,0,0,0,0,0,0,0,0,0,0,0,0,0,0,0,0,0,0,0,0,0,0,0,0,0,0,0,0,0,0,-3.5528,-3.5529,0,-3.5619,-3.562,-3.5621,-3.5526,-3.5522,-3.5518,-3.5515,-3.561,-3.5616,-3.5621,0,0,0,0,0,0,0,0,0,0,0,0,0,-3.5273,-3.5278,-3.5528,-3.553,-3.5531,-3.5619,-3.562,-3.5622,-3.5526,-3.5522,-3.5517,-3.5513,-3.5608,-3.5615,-3.5622,0,0,0,0,0,0,0,0,0,0,0,0,0,-3.5376,-3.528,-3.5528,-3.5494,-3.5491,-3.5619,-3.562,-3.5622,-3.5527,-3.5522,-3.5516,-3.5511,-3.5605,-3.5614,-3.5623,-3.579,0,0,-3.565,-3.5654,0,0,0,0,0,0,0,0,-3.537,-3.5385,-3.5498,-3.5496,-3.5494,-3.5555,-3.5565,-3.5678,-3.5529,-3.5514,-3.5515,-3.5508,-3.5596,-3.5606,-3.5635,-3.5794,-3.5798,-3.5651,-3.5657,-3.566,-3.5663,0,0,0,0,0,0,0,-3.5363,-3.5381,-3.5564,-3.5499,-3.5497,-3.5474,-3.5482,-3.5586,-3.5585,-3.5515,-3.5508,-3.552,-3.5594,-3.5627,-3.5636,-3.5799,-3.5651,-3.5659,-3.5664,-3.5668,-3.6099,-3.6104,0,0,0,0,0,0,-3.536,-3.5375,-3.5561,-3.5567,-3.5417,-3.5483,-3.5492,-3.5541,-3.5584,-3.5585,-3.5524,-3.5515,-3.5614,-3.5626,-3.5639,-3.5837,-3.566,-3.5669,-3.5674,-3.6093,-3.61,-3.6107,0,0,0,0,0,0,-3.5354,-3.5377,-3.5558,-3.547,-3.5491,-3.5493,-3.5549,-3.5546,-3.5578,-3.5591,-3.5591,-3.5558,-3.561,-3.5627,-3.5753,-3.5839,-3.5673,-3.5681,-3.6085,-3.6095,-3.6103,-3.6234,0,0,0,0,0,0,-3.5348,-3.5376,-3.5439,-3.5472,-3.5496,-3.567,-3.5554,-3.5552,-3.5594,-3.5582,-3.5622,-3.5623,-3.5607,-3.574,-3.5762,-3.5848,-3.5688,-3.6078,-3.609,-3.61,-3.6222,-3.6247,-3.6268,0,0,0,0,0,-3.5339,-3.5473,-3.5443,-3.5466,-3.5575,-3.5675,-3.5689,-3.5667,-3.5601,-3.5665,-3.5673,-3.5622,-3.5826,-3.5753,-3.5777,-3.5868,-3.6072,-3.6086,-3.61,-3.6212,-3.6242,-3.6267,0,0,0,0,0,0,-3.5452,-3.5477,-3.5444,-3.5592,-3.5632,-3.5659,-3.5739,-3.5699,-3.5759,-3.5746,-3.5716,-3.5726,-3.5859,-3.5876,-3.5795,-3.6031,-3.5938,-3.5957,-3.6016,-3.6044,-3.6066,-3.606,-3.5695,0,0,0,0,0,-3.5494,-3.5573,-3.559,-3.572,-3.5741,-3.5737,-3.5779,-3.5759,-3.5799,-3.5816,-3.5833,-3.5874,-3.5947,-3.5996,-3.6064,-3.6223,-3.6231,-3.6297,-3.632,-3.6339,-3.6356,-3.6441,-3.6471,-3.6151,-3.6151,-3.6151,0,0,-3.5582,-3.5605,-3.5657,-3.5743,-3.5771,-3.5854,-3.5752,-3.5843,-3.5904,-3.583,-3.595,-3.5963,-3.6008,-3.6151,-3.6215,-3.6169,-3.6445,-3.6356,-3.6371,-3.6378,-3.6458,-3.6488,-3.6515,-3.6161,-3.6159,-3.6157,0,0,-3.5785,-3.5811,-3.5921,-3.5951,-3.5995,-3.5991,-3.6017,-3.605,-3.6056,-3.6175,-3.6121,-3.6192,-3.6319,-3.6353,-3.6386,-3.66,-3.6556,-3.6623,-3.6742,-3.6826,-3.6851,-3.6873,-3.695,-3.6978,-3.664,-3.664,-3.664,0,-3.589,-3.6012,-3.5983,-3.6079,-3.6118,-3.6053,-3.6164,-3.6195,-3.626,-3.6288,-3.6235,-3.6392,-3.6417,-3.6567,-3.6619,-3.6648,-3.6678,-3.6619,-3.6849,-3.6871,-3.6892,-3.6965,-3.6994,-3.6648,-3.6647,-3.6646,-3.6646,0,-3.6138,-3.6223,-3.6307,-3.637,-3.6418,-3.6522,-3.6509,-3.6562,-3.6536,-3.6537,-3.6659,-3.6687,-3.6759,-3.6792,-3.6769,-3.6939,-3.6909,-3.6854,-3.676,-3.6931,-3.6999,-3.7026,-3.666,-3.6657,-3.6654,-3.6652,0,0,-3.6417,-3.6461,-3.6493,-3.652,-3.6563,-3.6628,-3.6728,-3.6798,-3.6844,-3.689,-3.6973,-3.7081,-3.7029,-3.7067,-3.7046,-3.7119,-3.7287,-3.7054,-3.7054,-3.7097,-3.7477,-3.7519,-3.7552,-3.7257,-3.7262,-3.7266,-3.7473,0,-3.6622,-3.6795,-3.6772,-3.6938,-3.7016,-3.6954,-3.7041,-3.7077,-3.708,-3.7147,-3.715,-3.7228,-3.7153,-3.7175,-3.7245,-3.7252,-3.7363,-3.7236,-3.7335,-3.7339,-3.7327,-3.7588,-3.7634,-3.7828,-3.7499,-3.7504,-3.7507,0,-3.6885,-3.6939,-3.7113,-3.7143,-3.7175,-3.7253,-3.7315,-3.7379,-3.7418,-3.7415,-3.7457,-3.7423,-3.7523,-3.7426,-3.7563,-3.7478,-3.7516,-3.7525,-3.7532,-3.7542,-3.7435,-3.7606,-3.7889,-3.7919,-3.7549,-3.7545,-3.7542,0,-3.7072,-3.7189,-3.7308,-3.7333,-3.737,-3.7427,-3.7445,-3.7478,-3.7521,-3.7575,-3.7602,-3.7667,-3.7703,-3.7754,-3.7738,-3.7669,-3.7879,-3.7781,-3.788,-3.7881,-3.7929,-3.7926,-3.8224,-3.7951,-3.7951,-3.795,-3.795,0,-3.7304,-3.7413,-3.7392,-3.7466,-3.7586,-3.7557,-3.7677,-3.7688,-3.7717,-3.7792,-3.7741,-3.7812,-3.7786,-3.7856,-3.7843,-3.7959,-3.7975,-3.7976,-3.7972,-3.7982,-3.7982,-3.8008,-3.7995,-3.7958,-3.7956,-3.7955,-3.7954,0,-3.7535,-3.7525,-3.7651,-3.7675,-3.7683,-3.7771,-3.7792,-3.7861,-3.7859,-3.7954,-3.7974,-3.7972,-3.8051,-3.804,-3.8128,-3.8119,-3.8264,-3.8242,-3.8251,-3.8247,-3.8347,-3.8338,-3.8673,-3.8715,-3.8414,-3.8417,-3.842,0,-3.7684,-3.7767,-3.7799,-3.7845,-3.7867,-3.7942,-3.7985,-3.7959,-3.8006,-3.8056,-3.8119,-3.8193,-3.8251,-3.838,-3.8387,-3.8453,-3.8434,-3.8546,-3.8444,-3.8451,-3.8437,-3.8433,-3.8441,-3.8568,-3.8571,-3.8574,-3.8576,0,-3.7951,-3.7941,-3.8005,-3.8068,-3.8121,-3.8169,-3.8212,-3.8253,-3.8231,-3.8286,-3.8366,-3.8411,-3.85,-3.8574,-3.8636,-3.8655,-3.8613,-3.8608,-3.8634,-3.8646,-3.8648,-3.8649,-3.8308,-3.8601,-3.8598,-3.8597,-3.8595,-3.8594,-3.8146,-3.8216,-3.825,-3.8323,-3.8352,-3.8393,-3.8459,-3.8465,-3.8531,-3.8601,-3.8581,-3.8672,-3.8707,-3.8786,-3.8811,-3.8881,-3.884,-3.8878,-3.8888,-3.8899,-3.8911,-3.8635,-3.8892,-3.8892,-3.8891,-3.889,-3.889,0,-3.8411,-3.8429,-3.8496,-3.8557,-3.8615,-3.8568,-3.8613,-3.8664,-3.8744,-3.878,-3.8838,-3.8929,-3.9,-3.9012,-3.9079,-3.9133,-3.9116,-3.9152,-3.9149,-3.9154,-3.8944,-3.8914,-3.9165,-3.9165,-3.9165,-3.9165,-3.9165,-3.9165,-3.8556,-3.8672,-3.8666,-3.8796,-3.8813,-3.8901,-3.8931,-3.8968,-3.8997,-3.9101,-3.9159,-3.9166,-3.9192,-3.9261,-3.9324,-3.9325,-3.9353,-3.9398,-3.9392,-3.9196,-3.9169,-3.9142,-3.9115,-3.9404,-3.9404,-3.9596,-3.9598,-3.9599]},{"header":{"parameterUnit":"m.s-1","parameterCategory":1,"la1":30.2991,"la2":30.254,"lo1":-89.0895,"lo2":-89.0444,"dy":0.0017,"dx":0.0017,"nx":28,"ny":28,"refTime":"2025-12-14T03:00:00:Z","depth":0,"parameterNumber":3,"parameterNumberName":"V-component_of_WINDS"},"data":[0,0,0,0,0,0,0,0,0,0,0,0,0,0,0,0,0,0,0,0,0,0,0,0,0,0,0,0,0,0,0,0,0,0,0,0,0,0,0,0,0,0,0,0,0,0,0,0,0,0,0,0,0,0,0,0,0,0,-5.6725,-5.6726,0,-5.678,-5.678,-5.6781,-5.6723,-5.6721,-5.6718,-5.6716,-5.6769,-5.6773,-5.6776,0,0,0,0,0,0,0,0,0,0,0,0,0,-5.6565,-5.6568,-5.6725,-5.6726,-5.6726,-5.678,-5.678,-5.6781,-5.6723,-5.672,-5.6718,-5.6715,-5.6768,-5.6772,-5.6776,0,0,0,0,0,0,0,0,0,0,0,0,0,-5.6629,-5.6569,-5.6725,-5.6704,-5.6703,-5.678,-5.678,-5.6781,-5.6724,-5.672,-5.6717,-5.6714,-5.6767,-5.6772,-5.6777,-5.6876,0,0,-5.6793,-5.6795,0,0,0,0,0,0,0,0,-5.6625,-5.6635,-5.6706,-5.6706,-5.6704,-5.6741,-5.6743,-5.6813,-5.6725,-5.6716,-5.6716,-5.6712,-5.6762,-5.6768,-5.6785,-5.6879,-5.6881,-5.6793,-5.6797,-5.6799,-5.68,0,0,0,0,0,0,0,-5.6621,-5.6632,-5.6747,-5.6707,-5.6706,-5.669,-5.6695,-5.6756,-5.6757,-5.6716,-5.6712,-5.6719,-5.6761,-5.678,-5.6786,-5.6882,-5.6793,-5.6798,-5.6801,-5.6803,-5.7056,-5.7059,0,0,0,0,0,0,-5.6619,-5.6629,-5.6745,-5.6748,-5.6656,-5.6696,-5.6702,-5.6733,-5.6756,-5.6757,-5.6722,-5.6717,-5.6773,-5.678,-5.6788,-5.6903,-5.6799,-5.6804,-5.6807,-5.7052,-5.7057,-5.706,0,0,0,0,0,0,-5.6616,-5.663,-5.6743,-5.6687,-5.67,-5.6702,-5.6737,-5.6735,-5.6755,-5.6761,-5.676,-5.6742,-5.6771,-5.678,-5.6854,-5.6904,-5.6806,-5.6811,-5.7048,-5.7054,-5.7059,-5.7136,0,0,0,0,0,0,-5.6612,-5.663,-5.6669,-5.6689,-5.6704,-5.681,-5.674,-5.6739,-5.6764,-5.6757,-5.6779,-5.678,-5.6769,-5.6847,-5.6859,-5.691,-5.6815,-5.7044,-5.7051,-5.7057,-5.7129,-5.7144,-5.7156,0,0,0,0,0,-5.6606,-5.6689,-5.6671,-5.6685,-5.6753,-5.6813,-5.6821,-5.6808,-5.6769,-5.6807,-5.681,-5.6779,-5.6897,-5.6855,-5.6869,-5.6921,-5.704,-5.7049,-5.7056,-5.7123,-5.7141,-5.7156,0,0,0,0,0,0,-5.6674,-5.6691,-5.6672,-5.6763,-5.6787,-5.6803,-5.6851,-5.6827,-5.6862,-5.6854,-5.6835,-5.684,-5.6918,-5.6927,-5.688,-5.7017,-5.6962,-5.6973,-5.7008,-5.7025,-5.7038,-5.7033,-5.6819,0,0,0,0,0,-5.67,-5.6748,-5.676,-5.6839,-5.6852,-5.685,-5.6876,-5.6863,-5.6887,-5.6896,-5.6905,-5.6928,-5.697,-5.6998,-5.7037,-5.713,-5.7133,-5.7173,-5.7186,-5.7197,-5.7207,-5.7253,-5.7271,-5.7087,-5.7087,-5.7087,0,0,-5.6753,-5.6768,-5.68,-5.6853,-5.687,-5.6919,-5.6859,-5.6914,-5.6949,-5.6904,-5.6974,-5.6981,-5.7006,-5.7089,-5.7126,-5.7099,-5.7258,-5.7208,-5.7216,-5.722,-5.7263,-5.7281,-5.7296,-5.7092,-5.7091,-5.709,0,0,-5.6874,-5.6892,-5.6959,-5.6977,-5.7003,-5.7001,-5.7017,-5.7036,-5.7039,-5.7109,-5.7075,-5.7117,-5.719,-5.7208,-5.7226,-5.7352,-5.7324,-5.7365,-5.7435,-5.748,-5.7495,-5.7507,-5.755,-5.7565,-5.7375,-5.7375,-5.7375,0,-5.6937,-5.7011,-5.6996,-5.7053,-5.7075,-5.7038,-5.7103,-5.7121,-5.7159,-5.7175,-5.7144,-5.7233,-5.7247,-5.7332,-5.7363,-5.738,-5.7396,-5.7362,-5.7494,-5.7507,-5.7518,-5.7558,-5.7574,-5.738,-5.7379,-5.7379,-5.7379,0,-5.7085,-5.7136,-5.7186,-5.7224,-5.7252,-5.7314,-5.7306,-5.7337,-5.7321,-5.7321,-5.7391,-5.7406,-5.7446,-5.7466,-5.7451,-5.7548,-5.753,-5.7497,-5.7442,-5.7541,-5.7578,-5.7593,-5.7387,-5.7385,-5.7384,-5.7382,0,0,-5.7251,-5.7278,-5.7296,-5.7311,-5.7337,-5.7375,-5.7433,-5.7473,-5.7498,-5.7525,-5.7572,-5.7634,-5.7603,-5.7624,-5.7611,-5.7652,-5.7746,-5.7613,-5.7613,-5.7635,-5.7851,-5.7874,-5.7892,-5.7728,-5.7731,-5.7734,-5.7848,0,-5.7371,-5.7473,-5.746,-5.7556,-5.7601,-5.7565,-5.7615,-5.7635,-5.7636,-5.7673,-5.7674,-5.7717,-5.7674,-5.7686,-5.7725,-5.7727,-5.7789,-5.7719,-5.7769,-5.7771,-5.7762,-5.7912,-5.7937,-5.8044,-5.7862,-5.7865,-5.7867,0,-5.7525,-5.7557,-5.7658,-5.7673,-5.7692,-5.7738,-5.7771,-5.7808,-5.7829,-5.7826,-5.7849,-5.7829,-5.7884,-5.7829,-5.7904,-5.7856,-5.7876,-5.7879,-5.7883,-5.7886,-5.7823,-5.7916,-5.8078,-5.8093,-5.789,-5.7888,-5.7886,0,-5.7632,-5.7701,-5.7769,-5.7784,-5.7805,-5.7837,-5.7847,-5.7864,-5.7888,-5.7917,-5.7932,-5.7967,-5.7986,-5.8013,-5.8001,-5.7962,-5.8077,-5.8021,-5.8075,-5.8075,-5.8099,-5.8098,-5.8264,-5.8116,-5.8116,-5.8115,-5.8115,0,-5.7767,-5.7829,-5.7817,-5.7859,-5.7927,-5.7911,-5.7978,-5.7983,-5.7999,-5.804,-5.8011,-5.8049,-5.8032,-5.8069,-5.806,-5.8122,-5.8132,-5.8129,-5.8126,-5.8131,-5.8131,-5.8142,-5.8133,-5.812,-5.8119,-5.8118,-5.8117,0,-5.7898,-5.7893,-5.7964,-5.7978,-5.7983,-5.8032,-5.8042,-5.808,-5.8079,-5.813,-5.8142,-5.8139,-5.818,-5.8172,-5.8218,-5.8211,-5.8288,-5.8277,-5.8281,-5.8277,-5.833,-5.8324,-5.8508,-5.853,-5.837,-5.8372,-5.8373,0,-5.7983,-5.803,-5.8048,-5.8073,-5.8085,-5.8127,-5.8151,-5.8136,-5.8161,-5.8187,-5.8221,-5.826,-5.8291,-5.8359,-5.836,-5.8394,-5.8381,-5.8443,-5.8386,-5.8389,-5.8379,-5.8375,-5.8378,-5.8454,-5.8456,-5.8457,-5.8459,0,-5.8133,-5.8128,-5.8164,-5.8198,-5.8227,-5.8253,-5.8276,-5.8298,-5.8285,-5.8315,-5.8357,-5.8381,-5.8427,-5.8465,-5.8496,-5.8504,-5.8479,-5.8477,-5.849,-5.8495,-5.8494,-5.8492,-5.8309,-5.8472,-5.8471,-5.847,-5.8469,-5.8469,-5.8242,-5.8281,-5.8299,-5.8339,-5.8355,-5.8376,-5.8412,-5.8414,-5.845,-5.8486,-5.8475,-5.8522,-5.8539,-5.8578,-5.859,-5.8626,-5.8602,-5.8623,-5.8628,-5.8632,-5.8637,-5.8491,-5.8632,-5.8631,-5.8631,-5.8631,-5.863,0,-5.8388,-5.8398,-5.8435,-5.8468,-5.8498,-5.8472,-5.8496,-5.8523,-5.8565,-5.8583,-5.8613,-5.866,-5.8697,-5.87,-5.8734,-5.8761,-5.875,-5.877,-5.8767,-5.8769,-5.8658,-5.8642,-5.8779,-5.8779,-5.8779,-5.8779,-5.8779,-5.8779,-5.8468,-5.8531,-5.8528,-5.8598,-5.8606,-5.8652,-5.8668,-5.8687,-5.8701,-5.8755,-5.8785,-5.8787,-5.8799,-5.8833,-5.8864,-5.8864,-5.8876,-5.8901,-5.8896,-5.8792,-5.8777,-5.8763,-5.8747,-5.8904,-5.8905,-5.9003,-5.9004,-5.9005]}]]